Location: Gollag?dem
(16.8053°N, 80.8024°E)
Time: 13:58:17
(UTC+00:00)

HJ-1C - Pass Details

Date: 13 August 2020
Orbit: 431 x 445 km, 97.1° (Epoch: 25 September)

Event Time Altitude Azimuth Distance (km) Brightness Sun altitude
Exits shadow 13:33:51 - 150° (SSE) 2,112 6.4 -7.9°
Reaches altitude 10° 13:35:13 10° 143° (SE) 1,561 5.6 -8.2°
Maximum altitude 13:38:16 33° 77° (ENE) 764 4.1 -8.9°
Drops below altitude 10° 13:41:19 10° 12° (NNE) 1,561 6.2 -9.6°
Sets 13:43:27 0° 2° (N) 2,430 7.3 -10.1°
